Location: Caltech
(34.1382°N, 118.1253°W)
Time: 21:57:18
(UTC-07:00)

Iridium 18 - Visible Passes

Search period start: 24 April 2018 00:00
Search period end: 04 May 2018 00:00
Orbit: 761 x 765 km, 86.4° (Epoch: 24 April)

Date Brightness Start Highest point End Pass type
(mag) Time Alt. Az. Time Alt. Az. Time Alt. Az.
24 Apr 6.1 03:20:46 52° ENE 03:20:46 52° ENE 03:25:14 10° NNE visible
24 Apr 7.3 05:00:57 13° WNW 05:00:57 13° WNW 05:03:18 10° NW visible
25 Apr 7.4 02:43:13 25° ENE 02:43:13 25° ENE 02:46:46 10° NNE visible
25 Apr 6.6 04:23:24 27° WNW 04:23:24 27° WNW 04:27:14 10° NNW visible
26 Apr 8.2 02:05:39 11° ENE 02:05:39 11° ENE 02:06:52 10° ENE visible
26 Apr 5.8 03:45:49 52° NW 03:45:49 52° NW 03:50:00 10° N visible
27 Apr 6.3 03:08:15 48° NE 03:08:15 48° NE 03:12:10 10° N visible
27 Apr 7.5 04:48:25 12° WNW 04:48:25 12° WNW 04:49:46 10° NW visible
28 Apr 7.4 02:30:39 25° ENE 02:30:39 25° ENE 02:33:48 10° NNE visible
28 Apr 6.8 04:10:49 24° WNW 04:10:49 24° WNW 04:14:02 10° NNW visible
29 Apr 8.2 01:53:02 12° ENE 01:53:02 12° ENE 01:54:14 10° NE visible
29 Apr 6.2 03:33:12 42° NW 03:33:12 42° NW 03:36:52 10° N visible
30 Apr 6.5 02:55:35 43° NNE 02:55:35 43° NNE 02:59:07 10° N visible
30 Apr 7.6 04:35:45 10° WNW 04:35:45 10° WNW 04:36:00 10° WNW visible
01 May 7.4 02:17:57 25° NE 02:17:57 25° NE 02:20:48 10° NNE visible
01 May 7.0 03:58:07 21° WNW 03:58:07 21° WNW 04:00:49 10° NNW visible
02 May 8.1 01:40:18 13° ENE 01:40:18 13° ENE 01:41:29 10° NE visible
02 May 6.5 03:20:29 35° NNW 03:20:29 35° NNW 03:23:44 10° N visible
03 May 6.7 02:42:50 39° NNE 02:42:50 39° NNE 02:46:03 10° N visible
